Regional Weather Roundup
Issued by NWS

Home | Current Version | Previous Version | Graphics & Text | Print | Product List | Glossary On
Versions: 1 2 3 4 5 6 7 8 9 10 11 12 13 14 15 16 17 18 19 20 21 22 23 24 25 26 27 28 29 30 31 32 33 34 35 36 37 38 39 40 41 42 43 44 45 46 47 48 49 50
000
ASUS43 KBIS 300801
RWRND

NORTH DAKOTA REGIONAL WEATHER ROUNDUP
NATIONAL WEATHER SERVICE BISMARCK ND
200 AM CST FRI JAN 30 2015

NOTE: "FAIR" INDICATES FEW OR NO CLOUDS BELOW 12,000 FEET WITH NO
SIGNIFICANT WEATHER AND/OR OBSTRUCTIONS TO VISIBILITY.


NDZ001>003-009>011-017-300900-
NORTHWEST NORTH DAKOTA

CITY           SKY/WX    TMP DP  RH WIND       PRES   REMARKS
WILLISTON      PTCLDY    26  19  74 CALM      30.20F
MINOT          CLOUDY    18  14  84 SE7       30.28F WCI   9
MINOT AFB      CLOUDY    16  16  99 SE10      30.27F WCI   4
$$

NDZ018>021-031>035-040>046-300900-
SOUTHWEST NORTH DAKOTA

CITY           SKY/WX    TMP DP  RH WIND       PRES   REMARKS
BISMARCK       CLEAR     19  17  92 SE9       30.36F WCI   8
DICKINSON      CLEAR     25  17  72 S12       30.21F WCI  14
GARRISON         N/A     17  14  88 SE6       30.29F WCI   9
HETTINGER ARPT CLEAR     24  16  71 SE6       30.28F WCI  17
$$

NDZ004>008-012>016-024-026-027-054-300900-
NORTHEAST NORTH DAKOTA

CITY           SKY/WX    TMP DP  RH WIND       PRES   REMARKS
GRAND FORKS    CLOUDY     6  -1  73 SE8       30.52F WCI  -7
GRND FRKS AFB  CLOUDY     7   1  76 S8        30.51F WCI  -6
DEVILS LAKE    MOCLDY    12   7  79 S12       30.38F WCI  -2
$$

NDZ022-023-025-028>030-036>039-047>053-300900-
SOUTHEAST NORTH DAKOTA

CITY           SKY/WX    TMP DP  RH WIND       PRES   REMARKS
FARGO          PTCLDY     9   1  70 SE5       30.53F WCI   1
JAMESTOWN      CLOUDY    18  13  80 S16       30.40F WCI   3
$$




USA.gov is the U.S. government's official web portal to all federal, state and local government web resources and services.